This demonstration page uses our WeatherBlox Daily Observations layout. Learn more.

Left ArrowRight Arrow

38.80484, -77.04692

Hourly Observations for August 13, 2019

Temp ( °F °C ) Dew Point ( °F °C ) Humidity (%) Winds ( mph kmh ) Pressure ( in mb ) Visibility ( mi km ) Precip ( " mm )
12:52 am 00:52 Cloudy 80 26.7 66 18.9 62 62 S 9 15 29.88 1012 10 16 0.00 0.00
1:52 am 01:52 Cloudy 80 26.7 65 18.3 60 60 S 12 19 29.86 1011 10 16 0.00 0.00
2:52 am 02:52 Cloudy 79 26.1 64 17.8 60 60 S 14 22 29.86 1011 10 16 0.00 0.00
3:52 am 03:52 Cloudy 79 26.1 65 18.3 62 62 S 13 20 29.85 1011 10 16 0.00 0.00
4:52 am 04:52 Cloudy 78 25.6 66 18.9 67 67 S 10 17 29.83 1010 10 16 0.00 0.00
5:52 am 05:52 Cloudy 78 25.6 66 18.9 67 67 SSW 9 15 29.83 1010 10 16 0.00 0.00
6:52 am 06:52 Cloudy 78 25.6 66 18.9 67 67 S 8 13 29.83 1010 10 16 0.00 0.00
7:52 am 07:52 Cloudy 79 26.1 68 20 69 69 SSW 10 17 29.84 1010 10 16 0.00 0.00
8:52 am 08:52 Cloudy 80 26.7 68 20 67 67 SSW 10 17 29.83 1010 10 16 0.00 0.00
9:52 am 09:52 Cloudy 81 27.2 68 20 65 65 SSW 14 22 29.83 1010 10 16 0.00 0.00
10:52 am 10:52 Cloudy 80 26.7 69 20.6 69 69 SSW 9 15 29.83 1010 10 16 0.00 0.00
11:52 am 11:52 Cloudy with Light Rain 80 26.7 71 21.7 74 74 WSW 5 7 29.85 1011 10 16 0.00 0.00
12:52 pm 12:52 Cloudy with Light Rain 78 25.6 73 22.8 85 85 S 5 7 29.84 1011 7 11 0.06 1.52
1:52 pm 13:52 Cloudy 80 26.7 71 21.7 74 74 Calm 29.80 1009 10 16 0.01 0.25
2:52 pm 14:52 Cloudy 81 27.2 72 22.2 74 74 S 5 7 29.80 1009 10 16 0.00 0.00
3:52 pm 15:52 Mostly Cloudy 82 27.8 73 22.8 74 74 S 9 15 29.78 1008 10 16 0.00 0.00
4:52 pm 16:52 Mostly Cloudy 85 29.4 71 21.7 63 63 SSE 5 7 29.77 1008 10 16 0.00 0.00
5:52 pm 17:52 Mostly Cloudy 85 29.4 72 22.2 65 65 SSE 7 11 29.76 1008 10 16 0.00 0.00
6:52 pm 18:52 Mostly Cloudy 84 28.9 72 22.2 67 67 S 5 7 29.76 1008 10 16 0.00 0.00
7:52 pm 19:52 Mostly Cloudy 84 28.9 72 22.2 67 67 SE 6 9 29.76 1008 10 16 0.00 0.00
8:52 pm 20:52 Mostly Cloudy 83 28.3 73 22.8 72 72 ESE 7 11 29.77 1008 10 16 0.00 0.00
9:46 pm 21:46 Mostly Cloudy with Thunderstorms 82 28 75 24 79 79 S 7 11 29.78 1008 7 11 0.01 0.25
9:52 pm 21:52 Cloudy with Thunderstorms 81 27.2 75 23.9 82 82 S 8 13 29.78 1009 9 14 0.01 0.25
10:20 pm 22:20 Cloudy with Thunderstorms 80 26.7 76 24.4 87 87 SSW 8 13 29.77 1008 6 10 0.03 0.76
10:29 pm 22:29 Cloudy with Thunderstorms 80 26.7 76 24.4 87 87 S 8 13 29.77 1008 7 11 0.04 1.02
10:42 pm 22:42 Cloudy with Light Rain 80 26.7 75 23.9 85 85 S 8 13 29.76 1008 9 14 0.04 1.02
10:52 pm 22:52 Cloudy with Light Rain 80 26.7 75 23.9 85 85 S 6 9 29.77 1008 10 16 0.04 1.02
11:44 pm 23:44 Cloudy 80 26.7 76 24.4 87 87 ENE 3 6 29.77 1008 10 16 0.00 0.00
11:52 pm 23:52 Cloudy 80 26.7 76 24.4 87 87 Calm 29.77 1008 10 16 0.00 0.00

Powered by AerisWeather